sat.trackr.live / text

‹ back to catalog

STARLINK-5201

NORAD 54076 · 2022-136AB

PAYLOAD ACTIVE UNKNOWN

§ Identity

Operator
Country
US
Launch date
2022-10-20
Launch site
AFETR
Launch vehicle
Mass (kg)
RCS (m²)

Purposes: comms

External: N2YO · Heavens-Above · Gunter

§ Orbital elements

Epoch: 2026-09-20T05:07:06.816576Z

Period
93.79 min
Inclination
53.1605°
Eccentricity
0.0000995
Mean motion
15.35392843 rev/d
Perigee alt
459.1 km
Apogee alt
460.4 km
Semi-major
6,837.9 km
B*
8.4487e-5
RAAN
180.8523°
Arg perigee
91.9438°
Mean anomaly
268.1679°
Rev number
21,634

§ Raw data

STARLINK-52011 54076U 22136AB  26263.21327334  .00002567  00000+0  84487-4 0  99942 54076  53.1605 180.8523 0000995  91.9438 268.1679 15.35392843216346

JSON: /api/v1/satellites/54076 · /tle

For live sub-satellite position, see the globe view (requires WebGL).

§ Visibility from observer

Set your observer location to see the next 7 days of passes ≥ 10°. The values pass through the URL so the page stays shareable.

No JS? Fill the form by hand. The geolocation button needs JavaScript.